Location: Unspecified
(0.0000°N, 0.0000°E)
Time: 22:46:44
(UTC+00:00)

Hubble Space Telescope - Pass Details

Date: 07 December 2025
Orbit: 480 x 483 km, 28.5° (Epoch: 08 December)

Event Time Altitude Azimuth Distance (km) Brightness Sun altitude
Exits shadow 03:27:27 14° 112° (ESE) 1,391 3.6 -32.8°
Drops below altitude 10° 03:28:06 10° 114° (ESE) 1,641 4.1 -32.7°
Sets 03:30:19 0° 116° (ESE) 2,521 5.3 -32.2°
